Regional Weather Roundup
Issued by NWS Cleveland, OH

Home | Current Version | Previous Version | Graphics & Text | Print | Product List | Glossary On
Versions: 1 2 3 4 5 6 7 8 9 10 11 12 13 14 15 16 17 18 19 20 21 22 23 24 25 26 27 28 29 30 31 32 33 34 35 36 37 38 39 40 41 42 43 44 45 46 47 48 49 50
000
ASUS41 KCLE 171410
RWRCLE
OHIO REGIONAL WEATHER ROUNDUP
NATIONAL WEATHER SERVICE CLEVELAND, OH
900 AM EST TUE JAN 17 2017

NOTE: "FAIR" INDICATES FEW OR NO CLOUDS BELOW 12,000 FEET WITH NO
SIGNIFICANT WEATHER AND/OR OBSTRUCTIONS TO VISIBILITY.

OHZ001>008-015>018-024>027-034-035-043-044-171500-
   NORTHWEST OHIO

CITY           SKY/WX    TMP DP  RH WIND       PRES   REMARKS
DEFIANCE       CLOUDY    51  49  92 SW5       29.78R
FINDLAY        LGT RAIN  57  52  83 S20       29.78F
TOLEDO EXPRESS RAIN      49  49 100 S10       29.76F FOG
TOLEDO EXEC    RAIN      50  50 100 S9        29.78S FOG
LIMA           LGT RAIN  56  56 100 SW14G24   29.80R
$$

OHZ009>014-019>023-028>033-038-089-171500-
   NORTHEAST OHIO

CITY           SKY/WX    TMP DP  RH WIND       PRES   REMARKS
CLE-HOPKINS    HVY RAIN  54  49  83 S15G22    29.88S
CLE-LAKEFRONT  CLOUDY    52  48  86 S14       29.83F
CUY CO. ARPT   CLOUDY    54  34  47 S16       29.86F FOG
LORAIN-ELYRIA  LGT RAIN  49  47  93 S10       29.83F FOG
ASHTABULA      CLOUDY    47  46  97 S12       29.89F FOG
AKRON-CANTON   RAIN      52  49  89 S14       29.89F FOG
WOOSTER        LGT RAIN  51  49  92 S14       29.87F
MANSFIELD      CLOUDY    54  53  97 S20G33    29.84S
YOUNGSTOWN     CLOUDY    48  46  93 S12       29.91F
$$

OHZ042-051>053-060>062-070>072-077>081-171500-
  SOUTHWEST OHIO

CITY           SKY/WX    TMP DP  RH WIND       PRES   REMARKS
CINC-COVINGTON MOCLDY    59  56  89 SW10      29.90S
CINC-LUNKEN    PTSUNNY   60  57  89 S12       29.91S
HAMILTON       CLEAR     60  57  89 SW10      29.89S
DAYTON         CLOUDY    57  55  93 SW18G26   29.86R
WRIGHT-PAT AFB MOCLDY    58  58 100 S17G24    29.86R
DAYTON GENERAL MOCLDY    58  55  90 SW13      29.87R
WILMINGTON     CLOUDY    57  55  93 SW14G24   29.90R
$$

OHZ036-037-039>041-045>050-054>059-063>069-073>076-082>088-171500-
  CENTRAL AND SOUTHEAST OHIO

CITY           SKY/WX    TMP DP  RH WIND       PRES   REMARKS
COLUMBUS       PTSUNNY   58  54  86 S13G23    29.89S
OSU AIRPORT    CLOUDY    56  55  97 S13       29.86F
BOLTON FIELD   PTSUNNY   57  55  94 S16       29.88F
RICKENBACK AFB   N/A     55  55  99 S14       29.90S
NEWARK         CLOUDY    56  53  90 S12G20    29.90S
MARION         CLOUDY    56  53  90 S16       29.84F
LANCASTER      CLOUDY    59  54  83 S14       29.92S
ZANESVILLE     CLOUDY    56  53  90 S14       29.92F
NEW PHILLY     NOT AVBL
$$




USA.gov is the U.S. government's official web portal to all federal, state and local government web resources and services.